�������l�o���
Date,Time,MP-1(��Sv/h),MP-2(��Sv/h),MP-3(��Sv/h),MP-4(��Sv/h),MP-5(��Sv/h),MP-6(��Sv/h),MP-7(��Sv/h),MP-8(��Sv/h),����,����(m/s),���J
2022/08/26,00:00,0.610,0.865,0.545,1.051,0.754,0.345,0.604,0.564,��쓌,1.7,��
2022/08/26,00:10,0.610,0.870,0.543,1.053,0.755,0.344,0.603,0.564,��,0.9,��
2022/08/26,00:20,0.611,0.868,0.545,1.055,0.754,0.344,0.604,0.564,��쓌,0.9,��
2022/08/26,00:30,0.609,0.870,0.545,1.053,0.754,0.344,0.605,0.564,��쐼,1.7,��
2022/08/26,00:40,0.610,0.868,0.544,1.055,0.754,0.344,0.603,0.563,��,1.9,��
2022/08/26,00:50,0.609,0.868,0.545,1.053,0.755,0.343,0.603,0.564,��,1.7,�L
2022/08/26,01:00,0.609,0.866,0.545,1.054,0.755,0.344,0.603,0.565,��,1.4,��
2022/08/26,01:10,0.610,0.869,0.546,1.053,0.754,0.344,0.602,0.565,��,0.8,��
2022/08/26,01:20,0.609,0.868,0.544,1.054,0.753,0.345,0.604,0.564,��,0.6,��
2022/08/26,01:30,0.609,0.867,0.545,1.055,0.755,0.344,0.604,0.563,�쐼,0.6,��
2022/08/26,01:40,0.610,0.869,0.546,1.052,0.754,0.343,0.604,0.564,�k�k��,0.8,��
2022/08/26,01:50,0.611,0.869,0.545,1.055,0.754,0.344,0.603,0.565,�k�k��,0.9,��
2022/08/26,02:00,0.612,0.869,0.545,1.055,0.754,0.344,0.605,0.566,�k�k��,1.4,��
2022/08/26,02:10,0.612,0.869,0.547,1.056,0.755,0.346,0.605,0.566,�k,1.4,��
2022/08/26,02:20,0.613,0.869,0.547,1.057,0.757,0.347,0.606,0.563,�k�k��,1.1,��
2022/08/26,02:30,0.613,0.869,0.546,1.056,0.756,0.345,0.605,0.564,�k,0.9,��
2022/08/26,02:40,0.612,0.872,0.546,1.055,0.756,0.347,0.605,0.565,�k,1.4,��
2022/08/26,02:50,0.612,0.869,0.548,1.056,0.757,0.345,0.605,0.564,�k,1.2,��
2022/08/26,03:00,0.612,0.872,0.548,1.056,0.756,0.347,0.605,0.566,�k,1.2,��
2022/08/26,03:10,0.612,0.870,0.546,1.057,0.758,0.347,0.605,0.564,-,CALM,��
2022/08/26,03:20,0.614,0.873,0.546,1.055,0.757,0.346,0.605,0.565,�k,1.5,��
2022/08/26,03:30,0.612,0.872,0.547,1.055,0.756,0.347,0.605,0.565,�k,1.5,��
2022/08/26,03:40,0.613,0.870,0.545,1.055,0.756,0.347,0.604,0.565,�k,1.7,��
2022/08/26,03:50,0.613,0.868,0.546,1.056,0.756,0.346,0.605,0.565,�k,1.4,��
2022/08/26,04:00,0.613,0.870,0.546,1.055,0.759,0.348,0.607,0.566,�k,2.3,��
2022/08/26,04:10,0.613,0.870,0.545,1.056,0.756,0.347,0.606,0.565,�k,1.7,��
2022/08/26,04:20,0.611,0.869,0.547,1.055,0.757,0.346,0.606,0.565,�k�k��,0.8,��
2022/08/26,04:30,0.613,0.871,0.546,1.057,0.756,0.347,0.606,0.565,�k��,1.1,��
2022/08/26,04:40,0.611,0.869,0.547,1.057,0.756,0.347,0.608,0.567,�k�k��,1.1,��
2022/08/26,04:50,0.612,0.870,0.546,1.056,0.757,0.346,0.607,0.565,�k,0.9,��
2022/08/26,05:00,0.612,0.870,0.547,1.056,0.757,0.346,0.606,0.566,�k,1.5,��
2022/08/26,05:10,0.610,0.867,0.547,1.055,0.757,0.346,0.606,0.563,�k�k��,1.9,��
2022/08/26,05:20,0.613,0.869,0.546,1.055,0.757,0.347,0.607,0.565,�k�k��,1.4,��
2022/08/26,05:30,0.612,0.870,0.547,1.055,0.757,0.346,0.604,0.564,�k�k��,2.6,��
2022/08/26,05:40,0.613,0.869,0.546,1.055,0.756,0.345,0.606,0.565,�k,1.9,��
2022/08/26,05:50,0.611,0.869,0.547,1.056,0.757,0.345,0.605,0.563,�k,3.8,��
2022/08/26,06:00,0.612,0.871,0.546,1.057,0.755,0.345,0.605,0.564,�k,3.3,��
2022/08/26,06:10,0.612,0.869,0.545,1.055,0.757,0.345,0.604,0.565,�k,3.2,��
2022/08/26,06:20,0.611,0.868,0.546,1.055,0.755,0.346,0.604,0.565,�k,3.3,��
2022/08/26,06:30,0.612,0.868,0.546,1.056,0.757,0.346,0.604,0.564,�k�k��,2.6,��
2022/08/26,06:40,0.611,0.870,0.547,1.055,0.755,0.344,0.604,0.564,�k,2.6,��
2022/08/26,06:50,0.611,0.868,0.549,1.057,0.756,0.345,0.602,0.563,�k�k��,2.3,��
2022/08/26,07:00,0.611,0.868,0.545,1.056,0.757,0.345,0.605,0.566,�k�k��,2.2,��
2022/08/26,07:10,0.611,0.869,0.545,1.056,0.757,0.346,0.603,0.564,�k�k��,2.3,��
2022/08/26,07:20,0.612,0.867,0.547,1.056,0.756,0.345,0.605,0.565,�k�k��,2.3,��
2022/08/26,07:30,0.611,0.869,0.546,1.054,0.756,0.345,0.603,0.564,�k,2.0,��
2022/08/26,07:40,0.610,0.864,0.547,1.056,0.756,0.345,0.602,0.564,�k,2.2,��
2022/08/26,07:50,0.611,0.866,0.544,1.056,0.755,0.344,0.604,0.564,�k,1.9,��
2022/08/26,08:00,0.610,0.866,0.544,1.057,0.754,0.344,0.601,0.562,�k�k��,1.9,��
2022/08/26,08:10,0.610,0.863,0.544,1.053,0.756,0.345,0.601,0.564,�k�k��,2.6,��
2022/08/26,08:20,0.610,0.862,0.544,1.056,0.753,0.345,0.601,0.564,�k,3.0,��
2022/08/26,08:30,0.610,0.863,0.544,1.055,0.756,0.344,0.600,0.563,�k��,2.0,��
2022/08/26,08:40,0.609,0.862,0.544,1.056,0.754,0.345,0.600,0.562,�k�k��,1.7,��
2022/08/26,08:50,0.610,0.863,0.543,1.052,0.753,0.344,0.600,0.564,�k�k��,1.7,��
2022/08/26,09:00,0.608,0.861,0.542,1.053,0.755,0.343,0.600,0.561,���k��,2.3,��
2022/08/26,09:10,0.608,0.862,0.544,1.055,0.754,0.344,0.599,0.562,�k��,1.9,��
2022/08/26,09:20,0.607,0.860,0.544,1.054,0.752,0.344,0.599,0.563,�k�k��,1.9,��
2022/08/26,09:30,0.608,0.860,0.543,1.053,0.753,0.344,0.600,0.560,�k��,1.5,��
2022/08/26,09:40,0.609,0.860,0.542,1.053,0.755,0.343,0.599,0.560,�k��,2.0,��
2022/08/26,09:50,0.610,0.861,0.543,1.054,0.753,0.343,0.600,0.560,�k�k��,2.5,��
2022/08/26,10:00,0.608,0.860,0.543,1.054,0.754,0.343,0.600,0.562,�k,2.0,��
2022/08/26,10:10,0.609,0.862,0.544,1.053,0.755,0.344,0.600,0.561,�k�k��,2.2,��
2022/08/26,10:20,0.608,0.863,0.544,1.055,0.753,0.343,0.599,0.561,�k�k��,1.4,��
2022/08/26,10:30,0.608,0.862,0.542,1.054,0.753,0.343,0.599,0.561,�k�k��,2.0,��
2022/08/26,10:40,0.609,0.863,0.543,1.053,0.752,0.343,0.599,0.562,�k�k��,2.2,��
2022/08/26,10:50,0.607,0.859,0.544,1.054,0.756,0.345,0.599,0.562,�k��,2.0,��
2022/08/26,11:00,0.608,0.861,0.544,1.052,0.754,0.344,0.601,0.562,�k��,2.6,��
2022/08/26,11:10,0.609,0.861,0.543,1.053,0.755,0.344,0.601,0.562,�k�k��,2.3,��
2022/08/26,11:20,0.607,0.862,0.544,1.055,0.754,0.343,0.600,0.562,�k��,1.9,��
2022/08/26,11:30,0.608,0.864,0.543,1.054,0.753,0.344,0.600,0.561,���k��,2.2,��
2022/08/26,11:40,0.608,0.866,0.544,1.053,0.754,0.342,0.600,0.562,���k��,2.3,��
2022/08/26,11:50,0.610,0.866,0.543,1.056,0.753,0.343,0.600,0.563,���k��,2.3,��
2022/08/26,12:00,0.610,0.868,0.545,1.053,0.753,0.343,0.602,0.562,���k��,2.8,��
2022/08/26,12:10,0.610,0.868,0.545,1.054,0.754,0.344,0.599,0.561,���k��,2.3,��
2022/08/26,12:20,0.612,0.870,0.546,1.054,0.752,0.343,0.600,0.561,�k�k��,2.2,��
2022/08/26,12:30,0.610,0.870,0.545,1.052,0.752,0.343,0.600,0.563,�k��,2.6,��
2022/08/26,12:40,0.610,0.868,0.544,1.054,0.754,0.343,0.601,0.562,���k��,2.3,��
2022/08/26,12:50,0.611,0.867,0.543,1.052,0.755,0.344,0.601,0.561,�k��,2.6,��
2022/08/26,13:00,0.610,0.868,0.545,1.056,0.757,0.344,0.601,0.562,�k��,2.5,��
2022/08/26,13:10,0.612,0.867,0.546,1.056,0.756,0.344,0.601,0.561,���k��,2.8,��
2022/08/26,13:20,0.611,0.866,0.544,1.056,0.755,0.343,0.602,0.562,�k��,2.6,��
2022/08/26,13:30,0.612,0.866,0.546,1.056,0.755,0.344,0.603,0.562,�k��,2.9,��
2022/08/26,13:40,0.612,0.869,0.546,1.055,0.756,0.343,0.602,0.563,�k��,2.9,��
2022/08/26,13:50,0.612,0.866,0.545,1.056,0.753,0.343,0.601,0.561,���k��,1.9,��
2022/08/26,14:00,0.610,0.867,0.545,1.055,0.755,0.343,0.601,0.563,���k��,2.2,��
2022/08/26,14:10,0.612,0.866,0.545,1.057,0.757,0.343,0.602,0.561,���k��,2.0,��
2022/08/26,14:20,0.611,0.866,0.545,1.054,0.755,0.343,0.603,0.562,�k��,2.3,��
2022/08/26,14:30,0.613,0.866,0.545,1.056,0.756,0.344,0.603,0.562,�k��,2.0,��
2022/08/26,14:40,0.611,0.866,0.544,1.054,0.755,0.345,0.601,0.562,�k�k��,2.3,��
2022/08/26,14:50,0.612,0.867,0.544,1.056,0.755,0.343,0.603,0.562,���k��,2.3,�L
2022/08/26,15:00,0.612,0.867,0.544,1.057,0.756,0.344,0.602,0.562,�k��,1.9,�L
2022/08/26,15:10,0.613,0.868,0.545,1.058,0.756,0.342,0.602,0.563,���k��,1.7,�L
2022/08/26,15:20,0.613,0.869,0.545,1.057,0.756,0.344,0.603,0.563,���k��,1.7,�L
2022/08/26,15:30,0.612,0.869,0.544,1.058,0.757,0.345,0.603,0.563,���k��,2.0,�L
2022/08/26,15:40,0.611,0.868,0.547,1.055,0.756,0.343,0.602,0.562,���k��,1.7,��
2022/08/26,15:50,0.609,0.868,0.544,1.056,0.755,0.343,0.604,0.563,��,2.2,��
2022/08/26,16:00,0.609,0.870,0.547,1.055,0.756,0.345,0.605,0.563,�쓌,2.0,��
2022/08/26,16:10,0.608,0.870,0.545,1.058,0.757,0.346,0.604,0.566,��,2.3,��
2022/08/26,16:20,0.611,0.866,0.546,1.056,0.756,0.344,0.603,0.563,��,1.7,��
2022/08/26,16:30,0.610,0.869,0.544,1.055,0.757,0.345,0.602,0.564,��,1.4,��
2022/08/26,16:40,0.612,0.868,0.544,1.056,0.756,0.344,0.605,0.563,��,1.7,��
2022/08/26,16:50,0.607,0.869,0.545,1.055,0.756,0.344,0.604,0.564,���쓌,2.0,��
2022/08/26,17:00,0.609,0.868,0.544,1.055,0.755,0.344,0.604,0.564,��,1.7,��
2022/08/26,17:10,0.608,0.869,0.545,1.056,0.757,0.344,0.603,0.563,���k��,1.4,��
2022/08/26,17:20,0.607,0.869,0.544,1.054,0.756,0.343,0.603,0.564,��,2.0,��
2022/08/26,17:30,0.612,0.870,0.546,1.055,0.755,0.343,0.604,0.564,��,1.2,��
2022/08/26,17:40,0.612,0.868,0.545,1.054,0.755,0.345,0.603,0.565,���쓌,2.0,��
2022/08/26,17:50,0.615,0.868,0.546,1.056,0.757,0.344,0.601,0.563,���쓌,1.9,��
2022/08/26,18:00,0.614,0.867,0.546,1.057,0.755,0.344,0.605,0.565,��쓌,1.7,��
2022/08/26,18:10,0.615,0.868,0.544,1.057,0.755,0.344,0.603,0.565,���쓌,1.2,��
2022/08/26,18:20,0.614,0.867,0.545,1.055,0.755,0.344,0.604,0.564,���k��,0.8,��
2022/08/26,18:30,0.614,0.870,0.543,1.056,0.755,0.343,0.604,0.565,�k��,1.2,��
2022/08/26,18:40,0.613,0.867,0.544,1.057,0.756,0.345,0.604,0.565,��,0.9,��
2022/08/26,18:50,0.612,0.869,0.545,1.056,0.756,0.345,0.603,0.564,�k�k��,0.9,��
2022/08/26,19:00,0.614,0.869,0.545,1.054,0.755,0.344,0.606,0.565,�k,1.4,��
2022/08/26,19:10,0.612,0.868,0.545,1.059,0.754,0.345,0.604,0.564,�k�k��,1.2,��
2022/08/26,19:20,0.620,0.869,0.545,1.056,0.756,0.344,0.605,0.564,�k,2.0,��
2022/08/26,19:30,0.618,0.871,0.544,1.054,0.756,0.345,0.605,0.565,�k,2.0,��
2022/08/26,19:40,0.615,0.867,0.545,1.056,0.757,0.344,0.604,0.564,�k�k��,2.3,��
2022/08/26,19:50,0.614,0.869,0.545,1.057,0.756,0.344,0.605,0.564,�k�k��,1.5,��
2022/08/26,20:00,0.613,0.868,0.545,1.055,0.755,0.343,0.605,0.564,�k,2.2,��
2022/08/26,20:10,0.612,0.868,0.545,1.056,0.756,0.346,0.604,0.564,�k,2.0,��
2022/08/26,20:20,0.610,0.868,0.543,1.055,0.754,0.344,0.604,0.565,�k,1.5,��
2022/08/26,20:30,0.612,0.868,0.543,1.057,0.755,0.344,0.604,0.564,�k��,1.4,��
2022/08/26,20:40,0.611,0.867,0.545,1.055,0.758,0.344,0.604,0.564,�k��,1.5,��
2022/08/26,20:50,0.612,0.870,0.546,1.056,0.755,0.345,0.606,0.564,�k,1.4,��
2022/08/26,21:00,0.612,0.867,0.543,1.056,0.755,0.343,0.605,0.564,�k,1.2,��
2022/08/26,21:10,0.613,0.869,0.543,1.057,0.755,0.345,0.604,0.563,�k,0.8,��
2022/08/26,21:20,0.611,0.866,0.545,1.054,0.755,0.345,0.604,0.563,�k��,0.6,��
2022/08/26,21:30,0.612,0.867,0.545,1.055,0.756,0.343,0.604,0.564,�k�k��,0.9,��
2022/08/26,21:40,0.611,0.866,0.545,1.057,0.756,0.344,0.605,0.562,�k�k��,1.1,�L
2022/08/26,21:50,0.612,0.868,0.544,1.055,0.753,0.345,0.604,0.564,�k�k��,1.4,�L
2022/08/26,22:00,0.611,0.869,0.544,1.058,0.756,0.344,0.604,0.564,�k,1.2,��
2022/08/26,22:10,0.612,0.868,0.546,1.054,0.754,0.344,0.604,0.563,�k,1.4,�L
2022/08/26,22:20,0.611,0.869,0.545,1.054,0.756,0.343,0.604,0.563,�k,1.4,�L
2022/08/26,22:30,0.612,0.869,0.544,1.055,0.754,0.345,0.602,0.564,�k,1.7,��
2022/08/26,22:40,0.612,0.869,0.543,1.055,0.755,0.344,0.601,0.565,�k,1.7,��
2022/08/26,22:50,0.611,0.868,0.544,1.055,0.754,0.345,0.605,0.564,�k�k��,1.9,��
2022/08/26,23:00,0.611,0.868,0.545,1.056,0.753,0.344,0.604,0.564,�k�k��,1.7,��
2022/08/26,23:10,0.612,0.868,0.545,1.054,0.755,0.344,0.602,0.563,�k�k��,2.3,��
2022/08/26,23:20,0.611,0.869,0.543,1.056,0.757,0.344,0.603,0.566,�k,2.3,��
2022/08/26,23:30,0.614,0.868,0.543,1.053,0.756,0.344,0.605,0.563,�k�k��,2.0,��
2022/08/26,23:40,0.613,0.866,0.544,1.056,0.755,0.345,0.603,0.563,�k,1.4,��
2022/08/26,23:50,0.612,0.867,0.543,1.054,0.756,0.345,0.602,0.565,�k,1.4,��
